星链-30589 (STARLINK-30589 )

导读

STARLINK-30589是美国太空探索技术公司星链(Starlink)星座的卫星,于2023年10月21日在美国发射升空。它是星链互联网卫星星座组网的组成部分,承担低轨卫星互联网服务组网任务,旨在为全球提供高速、低延迟的宽带互联网接入服务,推动星链星座完成全球覆盖布局。

Basic Information
目录编号:
58103
目录名称:
STARLINK-30589
国际标识:
2023-161G
轨道中心:
EARTH
卫星名称:
星链-30589
卫星全名:
星链-30589 (STARLINK-30589 )
卫星状态:
在轨 (已飞行968 天)
发射日期:
2023-10-21 UTC
国别 :
美国 (US)
星等 :
--
Orbit Information
数据来源 国际轨道数据 AOE轨道数据
星历时间 2026-06-15T06:01:39+0800
7小时前
查看轨道信息
2026-06-15T05:00:00+0800
8小时前
查看轨道信息
半长轴 6853.372km 6853.33km
偏心率 0.0001252 0.0001277
轨道倾角 53.162° 53.159°
近地点辐角 97.621° 153.285°
升交点赤经 74.010° 74.206°
平近点角 262.494° 330.897°
近地点 474.376km 474.317km
远地点 476.094km 476.069km
周期 94.106分钟 94.105分钟
每日圈数 15.301935 15.302075
Detailed Information
固有亮度:
5
最大亮度:
0.3
卫星平台:
Starlink v2.0 mini
覆盖范围:
全球
运营商:
太空探索技术公司
运营商所在国:
美国
制造商(研发单位):
太空探索技术公司
制造商所在国:
美国
使用方式:
暂无
Satellite Introduction
星链(Starlink)计划是由太空探索技术公司(SpaceX)提出的一个巨型低轨卫星互联网星座项目,计划在2019年至2024年间在太空搭建由约1.2万颗卫星组成的“星链”网络,其中1584颗将部署在地球上空550千米处的近地轨道,并从2020年开始工作。该卫星仍在工作。
2D Orbit Map
3D Orbit Map
Orbit Altitude Analysis Chart
Orbit Inclination Analysis Chart
Orbit Comprehensive Analysis Chart
View Comprehensive Chart